TimePDT,TemperatureF,Dew PointF,Humidity,Sea Level PressureIn,VisibilityMPH,Wind Direction,Wind SpeedMPH,Gust SpeedMPH,PrecipitationIn,Events,Conditions,WindDirDegrees,DateUTC
12:53 AM,48.9,43.0,80,30.24,10.0,Calm,Calm,-,N/A,,Overcast,0,2012-10-27 07:53:00
1:53 AM,50.0,44.1,80,30.24,10.0,NE,3.5,-,N/A,,Overcast,40,2012-10-27 08:53:00
2:53 AM,48.9,43.0,80,30.24,10.0,North,5.8,-,N/A,,Overcast,360,2012-10-27 09:53:00
3:53 AM,48.9,43.0,80,30.23,10.0,ENE,5.8,-,N/A,,Overcast,60,2012-10-27 10:53:00
4:53 AM,48.9,43.0,80,30.23,10.0,North,3.5,-,N/A,,Overcast,10,2012-10-27 11:53:00
5:53 AM,46.0,41.0,83,30.23,10.0,NNE,3.5,-,N/A,,Mostly Cloudy,30,2012-10-27 12:53:00
6:53 AM,46.9,42.1,83,30.23,10.0,NE,3.5,-,N/A,,Overcast,50,2012-10-27 13:53:00
7:53 AM,48.0,42.1,80,30.23,10.0,Calm,Calm,-,N/A,,Overcast,0,2012-10-27 14:53:00
8:53 AM,48.9,43.0,80,30.24,10.0,NNE,4.6,-,N/A,,Overcast,30,2012-10-27 15:53:00
9:53 AM,50.0,44.1,80,30.25,10.0,NNE,5.8,-,N/A,,Overcast,30,2012-10-27 16:53:00
11:53 AM,57.9,44.1,60,30.22,10.0,Calm,Calm,-,N/A,,Mostly Cloudy,0,2012-10-27 18:53:00
12:53 PM,57.9,44.1,60,30.21,10.0,Variable,3.5,-,N/A,,Overcast,0,2012-10-27 19:53:00
1:53 PM,62.1,43.0,50,30.17,8.0,Variable,3.5,-,N/A,,Clear,0,2012-10-27 20:53:00
2:53 PM,63.0,45.0,52,30.16,10.0,SSW,3.5,-,N/A,,Mostly Cloudy,200,2012-10-27 21:53:00
3:53 PM,64.9,46.0,50,30.14,10.0,ESE,3.5,-,N/A,,Overcast,110,2012-10-27 22:53:00
4:53 PM,64.0,46.9,54,30.13,9.0,Calm,Calm,-,N/A,,Mostly Cloudy,0,2012-10-27 23:53:00
5:53 PM,63.0,48.0,58,30.13,10.0,Calm,Calm,-,N/A,,Overcast,0,2012-10-28 00:53:00
6:53 PM,55.9,46.9,72,30.14,8.0,NNW,3.5,-,N/A,,Partly Cloudy,330,2012-10-28 01:53:00
7:53 PM,55.9,48.0,75,30.15,10.0,Calm,Calm,-,N/A,,Mostly Cloudy,0,2012-10-28 02:53:00
8:53 PM,52.0,46.9,83,30.15,10.0,Calm,Calm,-,N/A,,Clear,0,2012-10-28 03:53:00
9:53 PM,48.9,45.0,86,30.17,10.0,Calm,Calm,-,N/A,,Clear,0,2012-10-28 04:53:00
10:53 PM,48.0,44.1,86,30.19,10.0,Calm,Calm,-,N/A,,Clear,0,2012-10-28 05:53:00
11:53 PM,46.0,42.1,86,30.18,10.0,Calm,Calm,-,N/A,,Clear,0,2012-10-28 06:53:00